Change the Weather History Date:

Sunday, October 6, 2013

  Actual Average Record
Temperature  
Mean Temperature 62 °F -  
Max Temperature 75 °F 74 °F 89 °F (2007)
Min Temperature 48 °F 52 °F 36 °F (2001)
Degree Days  
Heating Degree Days 4    
Growing Degree Days 12 (Base 50)    
Moisture  
Dew Point 32 °F    
Average Humidity 36    
Maximum Humidity 62    
Minimum Humidity 19    
Precipitation  
Precipitation 0.00 in - - ()
Sea Level Pressure  
Sea Level Pressure 30.12 in    
Wind  
Wind Speed 14 mph (NW)    
Max Wind Speed 23 mph    
Max Gust Speed 32 mph    
Visibility 10 miles    
Events      
Averages and records for this station are not official NWS values.
T = Trace of Precipitation, MM = Missing Value Source: NWS Daily Summary

Daily Weather History Graph

Daily Weather History Graph

Search for Another Location

Airport or City:

Trip Planner

Search our weather history database for the weather conditions in past years. The results will help you decide how hot, cold, wet, or windy it might be!

Date:

Astronomy

Oct. 06, 2013 Rise Set
Actual Time 7:35 AM CDT 7:13 PM CDT
Civil Twilight 7:10 AM CDT 7:38 PM CDT
Nautical Twilight 6:40 AM CDT 8:08 PM CDT
Astronomical Twilight 6:11 AM CDT 8:37 PM CDT
Moon 9:17 AM CDT (10/6) 8:19 PM CDT (10/6)
Length of Visible Light 12h 28m
Length of Day
11h 37m
Waxing Crescent, 3% of the Moon is Illuminated
Oct 6
Waxing Crescent
Oct 11
First Quarter
Oct 18
Full
Oct 26
Last Quarter
Nov 3
New

Hourly Weather History & Observations

Time (CDT) Temp. Dew Point Humidity Pressure Visibility Wind Dir Wind Speed Gust Speed Precip Events Conditions
12:53 AM 52.0 °F 36.0 °F 54% 30.11 in 10.0 mi West 10.4 mph - N/A   Clear
1:53 AM 51.1 °F 35.1 °F 54% 30.13 in 10.0 mi NW 11.5 mph - N/A   Clear
2:53 AM 51.1 °F 32.0 °F 48% 30.12 in 10.0 mi NW 11.5 mph - N/A   Clear
3:53 AM 51.1 °F 28.0 °F 41% 30.10 in 10.0 mi NW 16.1 mph 23.0 mph N/A   Clear
4:53 AM 50.0 °F 26.1 °F 39% 30.11 in 10.0 mi NW 12.7 mph - N/A   Clear
5:53 AM 48.9 °F 26.1 °F 41% 30.13 in 10.0 mi NW 16.1 mph - N/A   Clear
6:53 AM 48.9 °F 27.0 °F 43% 30.15 in 10.0 mi NW 11.5 mph - N/A   Clear
7:53 AM 51.1 °F 26.1 °F 38% 30.15 in 10.0 mi NNW 19.6 mph 29.9 mph N/A   Clear
8:53 AM 54.0 °F 26.1 °F 34% 30.17 in 10.0 mi NNW 18.4 mph - N/A   Clear
9:53 AM 57.0 °F 27.0 °F 32% 30.18 in 10.0 mi NW 20.7 mph 29.9 mph N/A   Clear
10:53 AM 61.0 °F 24.1 °F 24% 30.17 in 10.0 mi NNW 21.9 mph 29.9 mph N/A   Clear
11:53 AM 64.0 °F 27.0 °F 25% 30.17 in 10.0 mi North 23.0 mph 31.1 mph N/A   Clear
12:53 PM 66.9 °F 28.0 °F 23% 30.15 in 10.0 mi NNW 21.9 mph 27.6 mph N/A   Clear
1:53 PM 69.1 °F 30.0 °F 23% 30.12 in 10.0 mi NNW 16.1 mph 26.5 mph N/A   Clear
2:53 PM 73.0 °F 32.0 °F 22% 30.09 in 10.0 mi NNW 16.1 mph 23.0 mph N/A   Clear
3:53 PM 75.0 °F 30.0 °F 19% 30.06 in 10.0 mi NNW 21.9 mph 32.2 mph N/A   Clear
4:53 PM 75.9 °F 30.0 °F 19% 30.05 in 10.0 mi NNW 17.3 mph 24.2 mph N/A   Clear
5:53 PM 73.9 °F 32.0 °F 21% 30.06 in 10.0 mi NNW 12.7 mph 23.0 mph N/A   Clear
6:53 PM 71.1 °F 35.1 °F 27% 30.06 in 10.0 mi NNW 11.5 mph - N/A   Clear
7:53 PM 63.0 °F 39.0 °F 41% 30.08 in 10.0 mi WNW 4.6 mph - N/A   Clear
8:53 PM 63.0 °F 37.0 °F 38% 30.09 in 10.0 mi NW 4.6 mph - N/A   Clear
9:53 PM 61.0 °F 41.0 °F 48% 30.10 in 10.0 mi West 3.5 mph - N/A   Clear
10:53 PM 57.0 °F 43.0 °F 59% 30.11 in 10.0 mi West 4.6 mph - N/A   Clear
11:53 PM 55.9 °F 43.0 °F 62% 30.12 in 10.0 mi WNW 4.6 mph - N/A   Clear